User: anonymous   Login
Location: New Plymouth
(39.0670°S, 174.0830°E)
Time: 23:44:10
(UTC+12:00)
Language:

STRAND 1 - Orbit

View from above orbital plane
View from above orbital plane
View from above satellite
View from above satellite

Ground track
Ground track

The orbit data is extracted from the following two-line orbital elements,

1 39090U 13009E   20217.53477005 +.00000022 +00000-0 +22635-4 0  9993
2 39090 098.4531 060.7561 0009938 135.9630 224.2349 14.35139088389608
Epoch (UTC): 04 August 2020 12:50:04
Eccentricity: 0.0009938
inclination: 98.4531°
perigee height: 767 km
apogee height: 782 km
right ascension of ascending node: 60.7561°
argument of perigee: 135.9630°
revolutions per day: 14.35139088
mean anomaly at epoch: 224.2349°
orbit number at epoch: 38960

The dashed part of the orbit path shows where the satellite is in the earth's shadow,  

DLR